Regional Weather Roundup
Issued by NWS

Home | Current Version | Previous Version | Graphics & Text | Print | Product List | Glossary On
Versions: 1 2 3 4 5 6 7 8 9 10 11 12 13 14 15 16 17 18 19 20 21 22 23 24 25 26 27 28 29 30 31 32 33 34 35 36 37 38 39 40 41 42 43 44 45 46 47 48 49 50
000
ASUS43 KLOT 011208
RWRIL

ILLINOIS REGIONAL WEATHER ROUNDUP
NATIONAL WEATHER SERVICE CHICAGO/ROMEOVILLE IL
700 AM CDT SAT AUG 01 2015

NOTE: "FAIR" INDICATES FEW OR NO CLOUDS BELOW 12,000 FEET WITH NO
SIGNIFICANT WEATHER AND/OR OBSTRUCTIONS TO VISIBILITY.

* THESE STATIONS ARE NOT UNDER NWS QUALITY CONTROL. THEY ALSO MAY NOT
  REPORT WEATHER SUCH AS PRECIPITATION OR FOG.

ILZ001-002-007-009-015-016-024-011300-
NORTHWEST ILLINOIS

CITY           SKY/WX    TMP DP  RH WIND       PRES   REMARKS
MOLINE         SUNNY     62  58  86 CALM      30.02S
6HR MIN TEMP:  58; 6HR MAX TEMP:  65;

STERLING*      SUNNY     63  57  82 CALM      29.99F
SAVANNA*       SUNNY     62  60  94 SE3       30.01S
$$

ILZ003-004-008-010-011-017-018-011300-
NORTH CENTRAL ILLINOIS

CITY           SKY/WX    TMP DP  RH WIND       PRES   REMARKS
ROCKFORD       SUNNY     59  55  87 CALM      30.02S
6HR MIN TEMP:  57; 6HR MAX TEMP:  64;

FREEPORT*      SUNNY     61  57  85 SW6       30.02F
ROCHELLE*      SUNNY     57  56  97 CALM      30.02S
DE KALB*       SUNNY     64  57  80 W6        30.02S
PERU*          SUNNY     63  58  84 W3        30.03R
$$

ILZ005-006-012>014-019>023-011300-
NORTHEAST ILLINOIS

CITY           SKY/WX    TMP DP  RH WIND       PRES   REMARKS
CHICAGO-OHARE  SUNNY     66  55  67 W7        29.99R
6HR MIN TEMP:  64; 6HR MAX TEMP:  69;

CHICAGO-MIDWAY MOSUNNY   69  53  56 W6        29.99S
6HR MIN TEMP:  66; 6HR MAX TEMP:  73;

AURORA         SUNNY     60  55  83 CALM      30.01S
6HR MIN TEMP:  54; 6HR MAX TEMP:  60;

LANSING*       SUNNY     64  55  73 W5        30.01R
JOLIET*        SUNNY     62  59  88 CALM      30.01S
WAUKEGAN       SUNNY     63  55  75 SW3       29.97S
6HR MIN TEMP:  60; 6HR MAX TEMP:  64;

DUPAGE AIRPORT SUNNY     62  56  80 CALM      30.00S
6HR MIN TEMP:  58; 6HR MAX TEMP:  66;

KANKAKEE*      SUNNY     62  58  88 W5        30.03R
WHEELING       SUNNY     66  53  63 W3        30.00S
6HR MIN TEMP:  64; 6HR MAX TEMP:  69;

MORRIS*        SUNNY     62  58  88 CALM      30.01R
ROMEOVILLE*    SUNNY     61  56  84 CALM      30.01S
NORTHERLY ISL    N/A     71  53  52 W8          N/A
$$

LMZ740>746-011300-
SOUTHERN LAKE MICHIGAN

STATION/POSITION SKY/WX   TEMP    WIND        PRES    VSBY  WAVE
                          AIR SEA DIR/SP/G                  HT/PER
                          (F)     (DEG/KT/KT) (MB)    (MI)  (FT/S)
HARRISON CRIB              69     270/ 12/ 13   N/A
BURNHAM HARBOR             71     260/  6/ 10   N/A
CALUMET HARBOR             66     250/  4/  6   N/A
BURNS HARBOR               70     230/  8/ 10 1015.9R
MICHIGAN CITY              72     260/ 15/ 17   N/A
MICHIGAN CITY 6N           73 74  290/ 12/ 16   N/A           3/ 4
ST. JOSEPH                 72 74  320/ 14/ 16   N/A           3/ 4
$$

ILZ025>027-034>036-040-047-049-050-058-095>099-011300-
WEST-CENTRAL ILLINOIS

CITY           SKY/WX    TMP DP  RH WIND       PRES   REMARKS
QUINCY         MOCLDY    69  66  90 CALM      30.05S
GALESBURG*     SUNNY     59  58  96 CALM      30.04S
MACOMB*        CLEAR     60  59  97 CALM      30.07R
JACKSONVILLE*  MOSUNNY   68  65  90 CALM      30.05S
PITTSFIELD*    MOCLDY    70  66  88 CALM      30.07R
$$

ILZ028>032-037-038-041>044-048-051>054-059>061-011300-
CENTRAL ILLINOIS

CITY           SKY/WX    TMP DP  RH WIND       PRES   REMARKS
PONTIAC        SUNNY     62  61  95 CALM      30.04S
BLOOMINGTON    SUNNY     66  60  81 NW5       30.06R
DECATUR        SUNNY     69  58  67 N8        30.05R
PEORIA         SUNNY     65  60  84 SW3       30.05R
6HR MIN TEMP:  64; 6HR MAX TEMP:  72;

LACON*         SUNNY     62  59  90 CALM      30.03R
LINCOLN*       SUNNY     64  59  86 CALM      30.05S
SPRINGFIELD    MOSUNNY   65  61  87 CALM      30.06R
6HR MIN TEMP:  62; 6HR MAX TEMP:  73;

TAYLORVILLE    MOSUNNY   63  61  94 N5        30.05R
$$

ILZ033-039-045-046-055>057-062-063-011300-
EAST-CENTRAL ILLINOIS

CITY           SKY/WX    TMP DP  RH WIND       PRES   REMARKS
CHAMPAIGN      SUNNY     61  58  90 CALM      30.05R
DANVILLE*      SUNNY     63  58  84 NW6       30.01R
RANTOUL*       SUNNY     65  60  82 NW6       30.04R
MATTOON        SUNNY     66  57  72 N5        30.04R
PARIS*         SUNNY     61  59  92 NW5       30.04S
$$

ILZ079-100>102-011300-
SOUTHWEST ILLINOIS

CITY           SKY/WX    TMP DP  RH WIND       PRES   REMARKS
ALTON          PTCLDY    66  64  94 N6        30.06R
BELLEVILLE     SUNNY     70  69  99 N2        30.04R
CAHOKIA*       CLEAR     70  67  90 CALM      30.05R
SPARTA*        SUNNY     70  67  90 CALM      30.06R
$$

ILZ064>066-069>071-074>076-080>082-084>086-088>090-092>094-011300-
SOUTH-CENTRAL ILLINOIS

CITY           SKY/WX    TMP DP  RH WIND       PRES   REMARKS
CARBONDALE     SUNNY     70  68  93 CALM      30.04R FOG
6HR MIN TEMP:  68; 6HR MAX TEMP:  73;

CAIRO*         SUNNY     69  69  99 CALM      30.03R
EFFINGHAM*     SUNNY     67  63  86 CALM      30.06R
MARION         SUNNY     70  70 100 N6        30.04R
MT. VERNON     SUNNY     66  63  88 CALM      30.05R
CENTRALIA*     SUNNY     68  65  91 CALM      30.05R
SALEM*         SUNNY     70  65  85 CALM      30.05R
METROPOLIS*    SUNNY     69  69 100 CALM      30.03R
$$

ILZ067-068-072-073-078-083-087-091-011300-
SOUTHEAST ILLINOIS

CITY           SKY/WX    TMP DP  RH WIND       PRES   REMARKS
LAWRENCEVILLE  SUNNY     71  61  70 N3        30.03R
FLORA*         SUNNY     69  65  88 N5        30.04R
FAIRFIELD*     SUNNY     69  67  93 CALM      30.03R
HARRISBURG*    SUNNY     67  67 100 CALM      30.04R
ROBINSON*      SUNNY     66  61  85 N5        30.04R
CARMI*         SUNNY     70  64  83 CALM      30.03R
$$

ABBREVIATIONS USED IN REMARKS
   TC - TEMPERATURE IN CELSIUS
  WCI - WIND CHILL INDEX
   HX - HEAT INDEX
  VSB - VISIBILITY
$$



USA.gov is the U.S. government's official web portal to all federal, state and local government web resources and services.